Miscellaneous Local Product
Issued by NWS Hastings, NE

Home | Current Version | Previous Version | Text Only | Print | Product List | Glossary Off
Versions: 1 2 3 4 5 6 7 8 9 10 11 12 13 14 15 16 17 18 19 20 21 22 23 24 25 26 27 28 29 30 31 32 33 34 35 36 37 38 39 40 41 42 43 44 45 46 47 48 49 50

000
AXUS43 KGID 291802
MISGRI

GID CWA HOURLY WEATHER ROUNDUP
NATIONAL WEATHER SERVICE HASTINGS NE
100 PM CDT SUN MAY 29 2016

NOTE: "FAIR" INDICATES FEW OR NO CLOUDS BELOW 12,000 FEET WITH NO
SIGNIFICANT WEATHER AND/OR OBSTRUCTIONS TO VISIBILITY.

...SOUTH CENTRAL NEBRASKA...

CITY           SKY/WX    TMP DP  RH WIND       PRES   REMARKS
GRAND ISLAND   SUNNY     78  52  40 CALM      30.10F
HASTINGS       SUNNY     81  55  40 W8        30.09F
KEARNEY        SUNNY     79  54  41 W8        30.10F
ORD            SUNNY     77  52  41 VRB3      30.08F
YORK           SUNNY     79  55  44 W6        30.10S
AURORA         SUNNY     78  54  43 SW8       30.10S
LEXINGTON      SUNNY     76  60  56 E5        30.09F
HOLDREGE       SUNNY     77  55  45 SW5       30.09F
HEBRON         SUNNY     80  58  46 SW5       30.09F

...NEBRASKA PANHANDLE...

CITY           SKY/WX    TMP DP  RH WIND       PRES   REMARKS
CHADRON        SUNNY     74  49  41 SW5       30.07F
ALLIANCE       SUNNY     72  50  45 MISG      30.09F
SCOTTSBLUFF    SUNNY     73  42  32 CALM      30.10F
SIDNEY         SUNNY     76  45  33 SW9       30.13F

...WESTERN AND NORTH CENTRAL NEBRASKA...

CITY           SKY/WX    TMP DP  RH WIND       PRES   REMARKS
VALENTINE      SUNNY     74  51  44 SE7       30.10F
AINSWORTH      SUNNY     73  52  47 SW3       30.10F
ONEILL         SUNNY     74  54  49 SW3       30.11S
BROKEN BOW     SUNNY     75  54  47 SE5       30.09F
IMPERIAL       SUNNY     76  55  48 S9        30.10F
NORTH PLATTE   SUNNY     77  53  43 S8        30.09F
MCCOOK         SUNNY     79  57  46 VRB5      30.08F

...EASTERN NEBRASKA...

CITY           SKY/WX    TMP DP  RH WIND       PRES   REMARKS
NORFOLK        SUNNY     76  56  49 MISG      30.08F
SO SIOUX CITY  SUNNY     79  59  50 W16G22    30.07S
TEKAMAH          N/A    N/A N/A N/A MISG      30.07F
COLUMBUS       SUNNY     79  55  44 CALM      30.09F
ALBION         SUNNY     77  56  47 N3        30.09F
OMAHA EPPLEY   MOSUNNY   78  58  49 MISG      30.07F
OFFUTT AFB     SUNNY     77  62  58 VRB3      30.07F
MILLARD        SUNNY     77  59  54 CALM      30.08F
LINCOLN        SUNNY     83  56  39 W13       30.08F
NEBRASKA CITY  SUNNY     80  59  49 W8G16     30.09F
BEATRICE       SUNNY     80  59  48 W10G16    30.09F
FALLS CITY     SUNNY     83  63  50 W13       30.08F

...NORTHERN KANSAS...

CITY           SKY/WX    TMP DP  RH WIND       PRES   REMARKS
GOODLAND       SUNNY     77  54  44 S15       30.10F
HILL CITY      MOSUNNY   86  56  35 SW9       30.09F
NORTON         CLEAR     81  48  32 S9        30.08F
PHILLIPSBURG   SUNNY     82  57  42 S9        30.08F
SMITH CENTER   SUNNY     81  64  57 S8        30.09F
BELOIT         SUNNY     57  39  51 S6        30.08F
HAYS           SUNNY     82  61  47 SW13      30.10S
RUSSELL        SUNNY     83  58  42 SW12G18   30.08F
CONCORDIA      SUNNY     81  60  48 W6        30.10F
SALINA         SUNNY     87  62  43 S7        30.09F
TOPEKA         SUNNY     85  55  35 W7        30.09F



USA.gov is the U.S. government's official web portal to all federal, state and local government web resources and services.